Lake Mead Weather Center

Moon Phase Calendar



Lake Mead Water Level
Online Cameras

 


      

Current Conditions in Meadview
11/28/2022 9:38:54 PM

58°F
Feels Like 56
Clouds
Humidity
44%
Pressure
29.68"
Wind
11.2 mph (S)
Dew Point
36°F
UV Index
0/10 (Low)
Visibility
6 mi

Hourly Forecast

Date & Time Mon, Nov 28
9:00 PM
Mon, Nov 28
10:00 PM
Mon, Nov 28
11:00 PM
Tue, Nov 29
12:00 AM
Tue, Nov 29
1:00 AM
Tue, Nov 29
2:00 AM
Tue, Nov 29
3:00 AM
Tue, Nov 29
4:00 AM
Tue, Nov 29
5:00 AM
Tue, Nov 29
6:00 AM
Tue, Nov 29
7:00 AM
Tue, Nov 29
8:00 AM
Tue, Nov 29
9:00 AM
Tue, Nov 29
10:00 AM
Tue, Nov 29
11:00 AM
Tue, Nov 29
12:00 PM
Tue, Nov 29
1:00 PM
Tue, Nov 29
2:00 PM
Tue, Nov 29
3:00 PM
Tue, Nov 29
4:00 PM
Tue, Nov 29
5:00 PM
Tue, Nov 29
6:00 PM
Tue, Nov 29
7:00 PM
Tue, Nov 29
8:00 PM
Tue, Nov 29
9:00 PM
Tue, Nov 29
10:00 PM
Tue, Nov 29
11:00 PM
Wed, Nov 30
12:00 AM
Wed, Nov 30
1:00 AM
Wed, Nov 30
2:00 AM
Wed, Nov 30
3:00 AM
Wed, Nov 30
4:00 AM
Wed, Nov 30
5:00 AM
Wed, Nov 30
6:00 AM
Wed, Nov 30
7:00 AM
Wed, Nov 30
8:00 AM
Wed, Nov 30
9:00 AM
Wed, Nov 30
10:00 AM
Wed, Nov 30
11:00 AM
Wed, Nov 30
12:00 PM
Wed, Nov 30
1:00 PM
Wed, Nov 30
2:00 PM
Wed, Nov 30
3:00 PM
Wed, Nov 30
4:00 PM
Wed, Nov 30
5:00 PM
Wed, Nov 30
6:00 PM
Wed, Nov 30
7:00 PM
Wed, Nov 30
8:00 PM
Condition
Clouds

Clouds

Clouds

Clouds

Clouds

Clouds

Clouds

Clouds

Clear

Clear

Clear

Clear

Clear

Clear

Clear

Clear

Clear

Clear

Clear

Clear

Clear

Clear

Clear

Clear

Clear

Clear

Clear

Clear

Clear

Clear

Clear

Clear

Clear

Clear

Clear

Clear

Clear

Clear

Clear

Clear

Clear

Clouds

Clouds

Clouds

Clear

Clear

Clear

Clear
Temperature 57°F58°F57°F55°F53°F51°F48°F48°F48°F47°F48°F50°F53°F55°F56°F57°F58°F58°F58°F56°F52°F51°F50°F49°F49°F48°F47°F47°F47°F46°F46°F46°F46°F45°F46°F52°F54°F56°F59°F60°F61°F62°F62°F59°F55°F54°F54°F54°F
Feels Like 55°F56°F54°F53°F51°F48°F48°F48°F48°F46°F46°F48°F50°F52°F53°F54°F55°F55°F54°F52°F48°F47°F46°F49°F49°F48°F47°F47°F47°F46°F46°F46°F46°F45°F46°F48°F51°F53°F55°F57°F59°F59°F59°F56°F52°F51°F51°F51°F
Cloudiness 68%66%54%42%42%31%18%15%0%0%0%0%0%0%1%1%0%0%0%0%3%4%3%4%4%4%5%4%2%2%1%1%0%0%0%0%0%0%1%3%10%13%15%13%3%1%1%1%
Visibility 6 mi6 mi6 mi6 mi6 mi6 mi6 mi6 mi6 mi6 mi6 mi6 mi6 mi6 mi6 mi6 mi6 mi6 mi6 mi6 mi6 mi6 mi6 mi6 mi6 mi6 mi6 mi6 mi6 mi6 mi6 mi6 mi6 mi6 mi6 mi6 mi6 mi6 mi6 mi6 mi6 mi6 mi6 mi6 mi6 mi6 mi6 mi6 mi
Precipitation 0%0%0%0%0%0%0%0%0%0%0%0%0%0%0%0%0%0%0%0%0%0%0%0%0%0%0%0%0%0%0%0%0%0%0%0%0%0%0%0%0%0%0%0%0%0%0%0%
Humidity 42%44%46%49%53%56%60%60%60%59%57%48%40%34%28%23%20%19%18%21%23%24%25%26%26%26%27%27%27%27%28%29%29%30%30%26%23%23%24%26%27%28%30%35%38%39%41%43%
Dew Point 35°F36°F36°F37°F37°F36°F31°F31°F31°F30°F29°F28°F25°F23°F20°F17°F14°F13°F12°F13°F13°F12°F12°F12°F12°F12°F11°F11°F11°F11°F11°F11°F12°F12°F13°F14°F14°F16°F18°F21°F23°F25°F26°F27°F26°F26°F27°F28°F
Pressure 29.68"29.68"29.68"29.71"29.71"29.74"29.8"29.8"29.83"29.85"29.91"29.94"29.97"30"30"29.97"29.97"29.94"29.94"29.97"30"30"30.03"30.06"30.06"30.06"30.06"30.06"30.06"30.06"30.06"30.03"30.03"30.06"30.06"30.06"30.06"30.06"30.03"30"29.97"29.94"29.91"29.91"29.91"29.94"29.94"29.94"
Wind Speed 13.1 mph11.2 mph8.9 mph7.4 mph6 mph3.5 mph2 mph1.7 mph0.2 mph3.6 mph5 mph4.4 mph5.4 mph5.7 mph5.6 mph6 mph6.2 mph5.9 mph5.8 mph4.8 mph3.8 mph3.3 mph2.8 mph2.4 mph2.2 mph1.1 mph1.3 mph2 mph2.3 mph1.5 mph0.9 mph1.4 mph1.5 mph0.6 mph1.2 mph0.7 mph0.6 mph0.9 mph1.2 mph1.4 mph1.8 mph1.4 mph2.2 mph3 mph2.1 mph0.5 mph1.7 mph3 mph
Wind
Direction
185°
S
185°
S
173°
S
172°
S
173°
S
170°
S
155°
SSE
146°
SE
89°
E
345°
NNW
348°
NNW
350°
N
352°
N
351°
N
345°
NNW
353°
N
356°
N
357°
N
355°
N
340°
NNW
338°
NNW
350°
N
354°
N

N
17°
NNE
24°
NNE
29°
NNE
28°
NNE
38°
NE
36°
NE
33°
NNE
26°
NNE
36°
NE
78°
ENE
88°
E
74°
ENE
345°
NNW
306°
NW
269°
W
261°
W
267°
W
269°
W
284°
WNW
314°
NW
339°
NNW
78°
ENE
155°
SSE
170°
S

Daily Forecast

Date High Low Precip. Humidity
Today
Nov 28

Clouds
65 °F
48 °F
0%
23%
Tuesday
Nov 29

Clear
58 °F
47 °F
0%
28%
Wednesday
Nov 30

Clear
61 °F
45 °F
0%
23%
Thursday
Dec 1

Clouds
66 °F
51 °F
0%
42%
Friday
Dec 2

Rain
63 °F
56 °F
55%
46%
Saturday
Dec 3

Rain
67 °F
55 °F
89%
58%
Sunday
Dec 4

Rain
61 °F
55 °F
60%
44%
Monday
Dec 5

Clouds
57 °F
47 °F
6%
45%
Tuesday
Dec 6

Clear
57 °F
45 °F
0%
36%
Wednesday
Dec 7

Clouds
58 °F
47 °F
0%
31%
Thursday
Dec 8

Clear
59 °F
45 °F
0%
27%
Friday
Dec 9

Clouds
64 °F
49 °F
0%
21%
Saturday
Dec 10

Clouds
63 °F
48 °F
0%
20%
Sunday
Dec 11

Clear
66 °F
49 °F
0%
21%
Monday
Dec 12

Clouds
66 °F
50 °F
0%
22%
Tuesday
Dec 13

Clouds
66 °F
52 °F
0%
22%

Temperature 8-14 Day Outlook



Precipitation 8-14 Day Outlook






About Us
Contact Us
Site Map
Search Site
Advertise With Us
   
Mead.USLakes.info
THE LAKE MEAD WEBSITE

Copyright 2022, Lakes Online
Privacy    |    Legal